Location: Baumgarten
(49.0970°N, 12.7493°E)
Time: 02:53:21
(UTC+00:00)

CARTOSAT-1 - Pass Details

Date: 05 July 2020
Orbit: 617 x 618 km, 97.8° (Epoch: 04 August)

Event Time Altitude Azimuth Distance (km) Brightness Sun altitude
Exits shadow 20:32:55 12° 162° (SSE) 1,869 5.4 -9.8°
Maximum altitude 20:36:58 83° 75° (ENE) 630 3.6 -10.2°
Drops below altitude 10° 20:41:18 10° 348° (NNW) 1,994 7.4 -10.6°
Sets 20:43:30 0° 348° (NNW) 2,904 8.4 -10.8°
